[[{"header":{"parameterUnit":"m.s-1","parameterCategory":1,"la1":30.2991,"la2":30.254,"lo1":-89.0895,"lo2":-89.0444,"dy":0.0017,"dx":0.0017,"nx":28,"ny":28,"refTime":"2023-09-22T03:00:00:Z","depth":0,"parameterNumber":2,"parameterNumberName":"U-component_of_WINDS"},"data":[0,0,0,0,0,0,0,0,0,0,0,0,0,0,0,0,0,0,0,0,0,0,0,0,0,0,0,0,0,0,0,0,0,0,0,0,0,0,0,0,0,0,0,0,0,0,0,0,0,0,0,0,0,0,0,0,0,0,-1.9237,-1.9237,0,-1.926,-1.9261,-1.9261,-1.9216,-1.9215,-1.9213,-1.9212,-1.9237,-1.9239,-1.9241,0,0,0,0,0,0,0,0,0,0,0,0,0,-1.9153,-1.9155,-1.9237,-1.9237,-1.9237,-1.926,-1.9261,-1.9261,-1.9216,-1.9215,-1.9213,-1.9211,-1.9237,-1.9239,-1.9241,0,0,0,0,0,0,0,0,0,0,0,0,0,-1.9184,-1.9155,-1.9237,-1.9218,-1.9216,-1.926,-1.9261,-1.9261,-1.9217,-1.9215,-1.9212,-1.921,-1.9236,-1.9239,-1.9242,-1.9306,0,0,-1.9251,-1.9253,0,0,0,0,0,0,0,0,-1.9183,-1.9187,-1.922,-1.9219,-1.9218,-1.9233,-1.924,-1.9276,-1.9217,-1.9217,-1.9212,-1.9209,-1.9238,-1.9241,-1.925,-1.9307,-1.9308,-1.9252,-1.9253,-1.9255,-1.9256,0,0,0,0,0,0,0,-1.918,-1.9186,-1.9246,-1.9221,-1.9219,-1.9208,-1.921,-1.9247,-1.9239,-1.9217,-1.9213,-1.9217,-1.9237,-1.9247,-1.925,-1.9308,-1.9251,-1.9254,-1.9256,-1.9257,-1.9419,-1.9421,0,0,0,0,0,0,-1.918,-1.9185,-1.9245,-1.9247,-1.9194,-1.9212,-1.9214,-1.923,-1.9239,-1.9238,-1.9219,-1.9215,-1.9243,-1.9247,-1.9251,-1.9326,-1.9255,-1.9258,-1.9259,-1.9416,-1.9419,-1.9422,0,0,0,0,0,0,-1.9179,-1.9186,-1.9244,-1.9215,-1.9221,-1.9215,-1.9234,-1.9232,-1.9242,-1.924,-1.9239,-1.9231,-1.9241,-1.9247,-1.9292,-1.9326,-1.9259,-1.9262,-1.9413,-1.9417,-1.9421,-1.9478,0,0,0,0,0,0,-1.9177,-1.9186,-1.921,-1.9216,-1.9223,-1.9285,-1.9236,-1.9234,-1.9248,-1.9243,-1.9251,-1.9251,-1.924,-1.9288,-1.9295,-1.933,-1.9264,-1.941,-1.9415,-1.9419,-1.9473,-1.9483,-1.9491,0,0,0,0,0,-1.9174,-1.9226,-1.9212,-1.9219,-1.9253,-1.9287,-1.9292,-1.9278,-1.9251,-1.9275,-1.9274,-1.925,-1.9321,-1.9293,-1.9301,-1.9337,-1.9408,-1.9414,-1.9419,-1.9468,-1.9481,-1.9491,0,0,0,0,0,0,-1.9225,-1.9226,-1.9211,-1.9266,-1.9277,-1.928,-1.931,-1.9291,-1.9311,-1.9305,-1.9287,-1.929,-1.9339,-1.9342,-1.9311,-1.9399,-1.936,-1.9368,-1.9395,-1.9407,-1.9416,-1.9414,-1.9267,0,0,0,0,0,-1.9242,-1.927,-1.9269,-1.9318,-1.9324,-1.9316,-1.9331,-1.9319,-1.933,-1.9335,-1.9337,-1.9348,-1.9373,-1.939,-1.9413,-1.9473,-1.9474,-1.9501,-1.951,-1.9518,-1.9525,-1.9557,-1.9569,-1.944,-1.944,-1.944,0,0,-1.9279,-1.9283,-1.9302,-1.9328,-1.9336,-1.9365,-1.9321,-1.9353,-1.9375,-1.934,-1.9383,-1.9385,-1.9397,-1.945,-1.9473,-1.9454,-1.9561,-1.9525,-1.9531,-1.9534,-1.9564,-1.9576,-1.9587,-1.9444,-1.9443,-1.9442,0,0,-1.9361,-1.9367,-1.9408,-1.9416,-1.9427,-1.9421,-1.9431,-1.9437,-1.9437,-1.948,-1.9454,-1.9479,-1.9522,-1.9532,-1.9542,-1.9627,-1.9607,-1.9635,-1.9684,-1.9716,-1.9726,-1.9735,-1.9765,-1.9776,-1.9642,-1.9642,-1.9642,0,-1.9406,-1.9448,-1.9431,-1.9466,-1.9478,-1.9447,-1.9489,-1.9497,-1.9516,-1.9525,-1.9503,-1.9556,-1.9562,-1.9617,-1.9638,-1.9647,-1.9658,-1.9634,-1.9726,-1.9734,-1.9742,-1.9771,-1.9783,-1.9645,-1.9645,-1.9645,-1.9644,0,-1.9502,-1.9532,-1.9564,-1.9582,-1.9598,-1.9635,-1.9625,-1.9643,-1.963,-1.9626,-1.967,-1.9676,-1.9699,-1.9711,-1.9699,-1.9765,-1.9752,-1.9728,-1.9689,-1.9758,-1.9785,-1.9796,-1.965,-1.9649,-1.9648,-1.9647,0,0,-1.9618,-1.9625,-1.9637,-1.9645,-1.9655,-1.9677,-1.9714,-1.9736,-1.9752,-1.9766,-1.9796,-1.9833,-1.981,-1.9822,-1.9811,-1.9838,-1.9905,-1.9811,-1.9811,-1.9828,-1.9978,-1.9996,-2.0009,-1.9891,-1.9893,-1.9895,-1.9977,0,-1.9699,-1.9761,-1.9747,-1.9808,-1.9835,-1.9806,-1.9837,-1.9847,-1.9845,-1.9868,-1.9865,-1.9892,-1.986,-1.9867,-1.9893,-1.9892,-1.9935,-1.9885,-1.992,-1.9921,-1.9918,-2.0023,-2.0043,-2.012,-1.9987,-1.9989,-1.999,0,-1.9802,-1.9819,-1.9883,-1.9888,-1.9899,-1.9928,-1.9947,-1.9969,-1.9979,-1.9975,-1.9989,-1.9972,-2.0008,-1.9968,-2.0018,-1.9984,-1.9997,-1.9999,-2.0001,-2.0004,-1.996,-2.003,-2.0144,-2.0156,-2.0007,-2.0005,-2.0004,0,-1.988,-1.9919,-1.9962,-1.997,-1.9976,-1.9997,-2.0001,-2.0009,-2.0023,-2.004,-2.0049,-2.007,-2.0082,-2.0099,-2.0088,-2.006,-2.014,-2.0099,-2.0138,-2.0138,-2.0157,-2.0156,-2.0276,-2.0165,-2.0164,-2.0164,-2.0164,0,-1.9973,-2.0013,-1.9997,-2.0024,-2.0068,-2.0051,-2.0096,-2.0096,-2.0103,-2.013,-2.0106,-2.0131,-2.0115,-2.0139,-2.0131,-2.0173,-2.0179,-2.0177,-2.0175,-2.018,-2.018,-2.0188,-2.0183,-2.0167,-2.0166,-2.0166,-2.0165,0,-2.0068,-2.0059,-2.0104,-2.0106,-2.0108,-2.014,-2.0143,-2.0167,-2.0163,-2.0197,-2.0204,-2.0197,-2.0224,-2.0215,-2.0244,-2.0238,-2.0293,-2.0283,-2.0289,-2.0287,-2.0327,-2.0323,-2.0457,-2.0473,-2.0351,-2.0352,-2.0353,0,-2.0128,-2.0158,-2.0163,-2.0179,-2.0184,-2.021,-2.0224,-2.0209,-2.0225,-2.0238,-2.0262,-2.0286,-2.0305,-2.035,-2.0348,-2.0371,-2.0362,-2.0407,-2.0365,-2.0369,-2.0363,-2.0361,-2.0364,-2.0415,-2.0417,-2.0418,-2.0419,0,-2.0235,-2.0229,-2.025,-2.027,-2.0287,-2.0302,-2.0315,-2.0329,-2.0314,-2.0333,-2.036,-2.0375,-2.0404,-2.043,-2.045,-2.0454,-2.0435,-2.0432,-2.0442,-2.0448,-2.045,-2.045,-2.0312,-2.0429,-2.0428,-2.0427,-2.0427,-2.0426,-2.0315,-2.034,-2.0348,-2.0372,-2.038,-2.0392,-2.0415,-2.0413,-2.0435,-2.0458,-2.0447,-2.0479,-2.0488,-2.0513,-2.052,-2.0545,-2.0527,-2.0542,-2.0546,-2.055,-2.0555,-2.0446,-2.0548,-2.0548,-2.0548,-2.0547,-2.0547,0,-2.0421,-2.0424,-2.0447,-2.0465,-2.0484,-2.0463,-2.0475,-2.0493,-2.0521,-2.0531,-2.055,-2.0581,-2.0605,-2.0605,-2.0628,-2.0647,-2.0639,-2.0654,-2.0653,-2.0654,-2.0569,-2.0558,-2.066,-2.066,-2.066,-2.066,-2.066,-2.066,-2.0479,-2.052,-2.0515,-2.056,-2.0563,-2.0593,-2.0603,-2.0614,-2.0622,-2.0657,-2.0677,-2.0676,-2.0682,-2.0705,-2.0727,-2.0726,-2.0736,-2.0754,-2.075,-2.0671,-2.066,-2.0649,-2.0639,-2.0756,-2.0756,-2.0833,-2.0833,-2.0834]},{"header":{"parameterUnit":"m.s-1","parameterCategory":1,"la1":30.2991,"la2":30.254,"lo1":-89.0895,"lo2":-89.0444,"dy":0.0017,"dx":0.0017,"nx":28,"ny":28,"refTime":"2023-09-22T03:00:00:Z","depth":0,"parameterNumber":3,"parameterNumberName":"V-component_of_WINDS"},"data":[0,0,0,0,0,0,0,0,0,0,0,0,0,0,0,0,0,0,0,0,0,0,0,0,0,0,0,0,0,0,0,0,0,0,0,0,0,0,0,0,0,0,0,0,0,0,0,0,0,0,0,0,0,0,0,0,0,0,0.2025,0.2024,0,0.189,0.1888,0.1887,0.1808,0.1808,0.1808,0.1807,0.1667,0.1664,0.1661,0,0,0,0,0,0,0,0,0,0,0,0,0,0.2218,0.2215,0.2026,0.2024,0.2022,0.189,0.1888,0.1886,0.1808,0.1808,0.1808,0.1807,0.1668,0.1664,0.166,0,0,0,0,0,0,0,0,0,0,0,0,0,0.2113,0.2214,0.2026,0.1967,0.1961,0.189,0.1888,0.1886,0.1808,0.1808,0.1808,0.1807,0.167,0.1665,0.166,0.1636,0,0,0.1644,0.1642,0,0,0,0,0,0,0,0,0.2119,0.2106,0.1978,0.1971,0.1964,0.1865,0.1904,0.1802,0.1809,0.1866,0.1807,0.1807,0.1734,0.1723,0.1698,0.163,0.1624,0.1643,0.164,0.1638,0.1636,0,0,0,0,0,0,0,0.2127,0.2112,0.1972,0.1976,0.1967,0.1948,0.1933,0.1885,0.1804,0.1861,0.1855,0.184,0.173,0.1704,0.1695,0.1622,0.1643,0.1639,0.1636,0.1634,0.1527,0.1528,0,0,0,0,0,0,0.2143,0.2118,0.1976,0.1968,0.2042,0.1945,0.1928,0.1897,0.1804,0.179,0.1841,0.1837,0.1713,0.1701,0.1689,0.1655,0.1638,0.1633,0.163,0.1527,0.1527,0.1528,0,0,0,0,0,0,0.2148,0.2131,0.1982,0.2041,0.2021,0.1942,0.1909,0.1895,0.1869,0.1789,0.1774,0.1829,0.1712,0.1697,0.165,0.165,0.1631,0.1626,0.1527,0.1527,0.1527,0.1588,0,0,0,0,0,0,0.2154,0.2133,0.2124,0.2042,0.2018,0.1945,0.1909,0.1893,0.186,0.1854,0.1774,0.176,0.171,0.1658,0.1645,0.1642,0.1622,0.1526,0.1527,0.1527,0.1586,0.1591,0.1595,0,0,0,0,0,0.2161,0.2146,0.2124,0.2107,0.2004,0.1945,0.1931,0.1875,0.1861,0.185,0.1799,0.1763,0.1652,0.1654,0.1639,0.1634,0.1526,0.1527,0.1527,0.1584,0.159,0.1595,0,0,0,0,0,0,0.2229,0.2134,0.2108,0.2066,0.2014,0.1932,0.1917,0.1883,0.1833,0.1829,0.1761,0.1744,0.1704,0.1664,0.1668,0.1607,0.1585,0.1583,0.1634,0.1638,0.1643,0.1652,0.1618,0,0,0,0,0,0.224,0.22,0.2119,0.209,0.2065,0.1996,0.1968,0.1929,0.1872,0.1849,0.1795,0.1741,0.1694,0.1664,0.1617,0.1581,0.1562,0.157,0.1574,0.1578,0.1576,0.1554,0.1557,0.153,0.153,0.153,0,0,0.226,0.2203,0.2182,0.2102,0.2057,0.2017,0.1978,0.1937,0.1906,0.1843,0.1795,0.1754,0.1689,0.1648,0.1627,0.1614,0.158,0.1579,0.1583,0.1579,0.1555,0.1558,0.156,0.153,0.153,0.153,0,0,0.2277,0.223,0.2201,0.2157,0.209,0.2044,0.2038,0.196,0.193,0.1882,0.1834,0.1797,0.1717,0.1673,0.1641,0.1643,0.1607,0.163,0.1652,0.1631,0.1633,0.1634,0.1634,0.1635,0.1628,0.1628,0.1628,0,0.231,0.2248,0.219,0.2152,0.2118,0.206,0.203,0.199,0.1911,0.1889,0.1876,0.1776,0.1728,0.1675,0.1676,0.1652,0.1642,0.1637,0.1638,0.1638,0.1639,0.1638,0.1638,0.1631,0.1631,0.1631,0.163,0,0.2293,0.2251,0.2235,0.2161,0.2125,0.2092,0.2028,0.1999,0.1964,0.192,0.1872,0.1813,0.1753,0.1738,0.1703,0.168,0.1674,0.1651,0.1627,0.1646,0.1643,0.1643,0.1636,0.1635,0.1634,0.1633,0,0,0.2346,0.2242,0.2237,0.2202,0.2125,0.2091,0.2055,0.1997,0.1973,0.1921,0.1889,0.1824,0.1802,0.1765,0.1725,0.1707,0.1711,0.1685,0.1682,0.1691,0.1682,0.1699,0.17,0.1689,0.1688,0.1688,0.1687,0,0.2351,0.2283,0.223,0.2182,0.2143,0.2088,0.2057,0.2006,0.1965,0.1925,0.1879,0.1834,0.1808,0.1785,0.1765,0.1715,0.1708,0.1715,0.1657,0.1655,0.1673,0.1699,0.1717,0.1719,0.1686,0.1686,0.1686,0,0.2346,0.2297,0.2246,0.2173,0.2154,0.2127,0.2069,0.2032,0.1974,0.1945,0.1905,0.1863,0.1823,0.1805,0.1748,0.1754,0.1727,0.17,0.1698,0.1689,0.1671,0.1689,0.1718,0.1718,0.1684,0.1684,0.1684,0,0.2389,0.231,0.2269,0.2242,0.2156,0.2138,0.2102,0.2043,0.2011,0.1961,0.194,0.1886,0.1856,0.1816,0.1761,0.1753,0.1709,0.1687,0.1683,0.1685,0.1675,0.1676,0.1698,0.1661,0.1661,0.1661,0.1661,0,0.2399,0.2369,0.2287,0.2262,0.2227,0.2167,0.2135,0.2093,0.2042,0.2008,0.1958,0.1927,0.1857,0.1817,0.1775,0.1734,0.1721,0.1696,0.1684,0.1699,0.1702,0.168,0.1677,0.1661,0.1661,0.1661,0.1661,0,0.244,0.2384,0.2335,0.2259,0.2239,0.2217,0.2152,0.2125,0.2082,0.2039,0.2025,0.1957,0.1908,0.185,0.1781,0.1753,0.1715,0.1699,0.1735,0.1728,0.1727,0.1727,0.1734,0.1732,0.1698,0.1698,0.1699,0,0.2449,0.2425,0.2346,0.232,0.2285,0.2243,0.2211,0.2152,0.2121,0.2053,0.2035,0.1982,0.1936,0.1861,0.1804,0.1752,0.1734,0.174,0.1725,0.1741,0.1732,0.1734,0.1731,0.1743,0.1744,0.1744,0.1745,0,0.247,0.2444,0.24,0.2346,0.2309,0.2264,0.2217,0.2198,0.2129,0.2097,0.2046,0.2011,0.1942,0.189,0.1831,0.1793,0.1757,0.175,0.1746,0.176,0.1781,0.1769,0.1744,0.175,0.1749,0.1749,0.1749,0.1748,0.2494,0.2471,0.2412,0.2364,0.2323,0.228,0.2251,0.2205,0.2162,0.2101,0.2069,0.202,0.1962,0.1879,0.1843,0.1803,0.1791,0.1785,0.1784,0.1783,0.1787,0.179,0.1792,0.1792,0.1792,0.1792,0.1792,0,0.2512,0.2472,0.2429,0.2365,0.2328,0.2299,0.2245,0.2216,0.2173,0.2123,0.208,0.2022,0.1972,0.1913,0.1859,0.1838,0.182,0.1826,0.1826,0.1817,0.1801,0.181,0.1841,0.1841,0.1841,0.1841,0.1841,0.1841,0.2517,0.2475,0.2442,0.238,0.234,0.2291,0.2263,0.2223,0.2183,0.2121,0.2079,0.2041,0.1987,0.1929,0.1882,0.1866,0.1848,0.1858,0.1837,0.1823,0.1819,0.1814,0.1822,0.1855,0.1855,0.1856,0.1856,0.1856]}]]